Lid_Strength_Index
2 3 4 5 10 11 14 12 10 9 7 6 5 7 8 7 8 12 2 1 1 0 -0 -1 -0 -1 -1 -1 -1 -1 -1 -1 -1 -1 -1 -1 -1 -1 -1 -1 -1 -2 -1 -1 -1 -1 -1 -1 -1
3 3 5 8 12 14 14 10 10 8 6 5 5 6 7 9 5 4 3 1 1 0 -0 -0 -0 -0 -1 -1 -1 -1 -1 -1 -1 -1 -1 -1 -1 -1 -1 -1 -1 -1 -1 -1 -1 -1 -1 -1 -1
2 3 9 11 13 15 13 10 8 7 5 6 6 5 6 7 4 3 1 1 0 0 -0 -0 -0 -0 -1 -1 -1 -1 -1 -1 -1 -1 -1 -1 -1 -1 -1 -2 -1 -2 -1 -1 -1 -1 -1 -1 -1
5 7 8 12 13 11 11 9 7 7 6 6 6 8 5 3 3 2 1 1 1 0 -0 0 -0 -0 -1 -1 -1 -1 -1 -1 -1 -1 -1 -1 -1 -1 -1 -2 -1 -2 -2 -1 -1 -1 -1 -0 -1
6 8 12 14 12 9 8 7 7 7 7 6 6 8 7 3 1 1 1 1 1 1 -0 -0 0 -0 -1 -1 -1 -1 -1 -1 -1 -1 -1 -1 -2 -2 -2 -1 -1 -2 -2 -1 -1 -1 -1 -2 -1
9 9 13 14 11 9 8 7 7 6 5 5 7 7 6 2 2 2 1 2 1 1 -0 -0 -1 -0 -0 -1 -1 -0 -1 -1 -1 -1 -1 -1 -2 -2 -2 -1 -1 -1 -1 -1 -1 -2 -2 -2 -2
9 11 12 12 11 10 8 7 7 8 6 6 5 9 6 5 2 1 2 1 1 1 0 0 -0 -0 -0 -0 -0 0 -0 -0 -1 -1 -1 -1 -1 -1 -1 -1 -1 -1 -2 -1 -1 -1 -2 -2 -2
8 10 12 12 12 12 8 7 6 7 7 4 4 9 8 5 2 2 2 2 2 1 1 1 1 0 0 0 0 0 -0 -0 -0 -1 -1 -0 -1 -1 -1 -0 -1 -1 -2 -1 -1 -1 -1 -2 -2
7 12 14 12 11 10 7 7 6 5 6 7 4 5 4 2 2 3 3 3 2 2 1 1 1 0 0 0 -0 -0 -1 -0 -0 -0 -0 0 1 1 1 0 -1 -1 -1 -1 -1 -1 -1 -1 -1
9 12 11 9 9 8 7 8 8 8 8 7 5 4 3 3 3 4 4 4 3 3 2 1 1 0 0 -0 1 1 0 1 1 1 2 1 1 2 2 1 -0 -1 -1 -1 -1 -1 -1 -1 1
8 10 8 7 8 8 9 8 7 8 9 6 6 6 4 4 4 4 4 3 3 2 2 1 1 1 1 1 1 1 1 1 2 2 2 1 1 2 3 3 2 3 1 1 0 0 0 1 1
9 7 7 7 7 8 9 7 7 8 7 5 5 4 4 4 4 4 4 3 3 2 2 1 1 1 1 1 1 0 1 1 1 2 2 2 2 3 3 4 4 4 4 4 2 3 2 2 2
8 8 6 6 7 8 6 7 7 7 5 4 4 5 4 4 4 3 3 3 2 3 2 1 1 1 0 0 1 1 1 1 1 1 2 2 2 2 2 4 4 4 5 5 5 5 4 3 3
7 7 7 7 7 7 7 7 8 7 5 5 4 5 5 5 5 4 3 3 3 2 2 2 1 0 1 1 1 2 2 2 3 3 3 3 2 2 3 3 3 4 5 6 5 5 5 5 4
6 8 7 7 7 7 7 9 8 6 5 6 6 5 5 5 5 5 4 3 2 2 2 2 1 1 1 1 2 2 2 2 2 3 3 3 3 3 3 3 3 3 4 5 5 5 3 4 4
8 9 12 8 7 7 8 11 7 7 6 6 6 7 5 5 4 4 4 3 2 2 2 2 1 1 2 2 1 1 1 2 2 3 4 4 3 3 4 4 4 4 4 4 4 4 4 4 4
10 13 11 10 8 8 9 11 8 7 6 7 6 6 6 6 5 6 6 7 5 2 2 2 2 2 2 2 1 1 1 2 2 2 3 3 3 3 4 5 4 4 4 5 4 5 5 4 4
13 13 14 13 10 9 11 11 9 8 8 8 8 8 7 7 6 5 5 4 4 2 2 2 2 3 3 2 2 2 2 2 2 2 2 2 3 3 2 4 4 4 4 5 5 5 5 3 4
11 12 13 12 9 10 11 11 10 9 8 9 8 8 8 6 5 4 3 3 3 4 2 2 3 3 3 4 4 3 3 3 2 2 2 2 2 3 3 3 4 4 4 4 5 5 5 4 3
10 11 12 10 8 10 11 12 10 9 8 8 8 9 7 7 5 4 3 3 3 5 3 3 3 3 2 3 4 4 4 3 3 2 2 1 2 2 2 3 3 3 4 4 5 5 5 4 4
11 12 12 12 11 11 11 13 11 9 8 8 8 8 7 6 5 5 4 4 4 4 4 4 3 3 3 4 5 6 6 6 6 5 5 4 2 1 1 2 3 4 3 4 4 4 5 5 4
13 10 11 11 13 16 12 18 12 10 9 9 9 9 7 6 5 4 4 4 4 4 4 3 3 3 3 4 5 4 6 6 7 7 7 7 6 6 6 5 5 6 6 4 4 3 4 5 5
11 10 11 12 14 15 13 16 13 11 10 10 10 8 8 7 6 6 5 5 4 3 4 3 3 3 3 3 3 4 4 6 7 7 7 7 7 7 6 6 5 6 6 5 6 5 4 5 5
9 11 12 13 14 18 13 15 15 12 11 9 8 7 7 7 7 7 6 6 6 5 4 4 3 3 3 4 4 4 4 5 7 7 7 7 7 7 6 6 6 6 5 5 5 5 5 5 4
11 14 17 18 18 18 12 14 13 11 9 8 8 8 7 7 7 7 7 6 6 6 5 4 3 3 4 4 4 4 5 6 6 6 7 7 7 7 6 6 7 6 6 5 4 5 6 4 5
12 13 17 20 19 17 12 16 13 10 8 7 7 7 7 7 7 6 6 7 7 6 6 5 4 4 3 4 4 4 4 4 5 5 6 6 6 7 7 7 6 6 6 5 5 5 4 4 4
12 14 12 15 15 18 16 14 11 10 10 8 8 8 8 8 8 8 8 8 8 8 8 7 5 4 4 4 4 4 4 4 4 5 6 6 7 7 7 6 7 6 6 6 6 6 5 5 5
12 11 15 15 19 20 17 16 15 12 11 9 9 9 9 8 9 9 9 9 8 8 7 7 7 6 3 3 3 3 4 4 4 5 5 6 6 6 6 6 5 6 6 6 6 7 7 7 7
12 14 13 14 16 20 21 18 12 11 10 10 9 8 9 9 10 10 9 9 8 8 8 7 6 5 5 4 3 3 3 2 3 4 3 5 7 5 5 5 5 6 6 6 7 7 7 7 7
10 11 12 16 17 17 18 17 10 10 10 9 10 9 9 10 10 9 9 8 9 8 7 6 6 5 5 3 3 2 3 3 2 3 5 6 5 4 4 4 5 6 6 7 7 8 8 8 8